FW8637 Weather Reports


time (UTC)temp
C
wind
direction
speed
KPH
gust
KPH
rain 1hr
cm
rain 24hr
cm
rain mn
cm
humidity
%
barometer
mb
20260906105219 21 306 0.0 0.0 0.00 0.61 0.61 99 1013.9
20260906104719 21 306 0.0 0.0 0.00 0.61 0.61 99 1013.9
20260906104218 21 306 0.0 0.0 0.00 0.61 0.61 99 1013.9
20260906103716 21 306 0.0 0.0 0.00 0.61 0.61 99 1013.8
20260906103211 21 306 0.0 0.0 0.00 0.61 0.61 99 1013.7
20260906102706 21 306 0.0 0.0 0.00 0.61 0.61 99 1013.6
20260906102205 21 306 0.0 0.0 0.00 0.61 0.61 99 1013.8
20260906101700 21 306 0.0 0.0 0.00 0.61 0.61 99 1013.7
20260906101155 21 306 0.0 0.0 0.00 0.61 0.61 99 1013.8
20260906100651 20 306 0.0 0.0 0.00 0.61 0.61 99 1013.9
20260906100151 20 306 0.0 0.0 0.00 0.61 0.61 99 1013.5
20260906095646 21 306 0.0 0.0 0.00 0.61 0.61 99 1013.6
20260906095141 21 306 0.0 0.0 0.00 0.61 0.61 99 1013.7
20260906094640 21 306 0.0 0.0 0.00 0.61 0.61 99 1013.4
20260906094136 21 306 0.0 0.0 0.00 0.61 0.61 99 1013.4
20260906093632 21 306 0.0 0.0 0.00 0.61 0.61 99 1013.3
20260906093132 21 307 0.0 0.0 0.00 0.61 0.61 99 1013.4
20260906092627 21 307 0.0 0.0 0.00 0.61 0.61 99 1013.4
20260906092122 21 307 0.0 0.0 0.00 0.61 0.61 99 1013.4
20260906091618 21 307 0.0 0.0 0.00 0.61 0.61 99 1013.3
20260906091114 21 307 0.0 0.0 0.00 0.61 0.61 99 1013.4
20260906090615 21 307 0.0 0.0 0.00 0.61 0.61 99 1013.4
20260906090114 21 307 0.0 0.0 0.00 0.61 0.61 99 1013.4
20260906085614 21 307 0.0 0.0 0.00 0.61 0.61 99 1013.5
20260906085108 21 307 0.0 0.0 0.00 0.61 0.61 99 1013.4
20260906084603 21 307 0.0 0.0 0.00 0.61 0.61 99 1013.4
20260906084101 21 307 0.0 0.0 0.00 0.61 0.61 99 1013.4
20260906083557 21 307 0.0 0.0 0.00 0.61 0.61 99 1013.8
20260906083057 21 307 0.0 0.0 0.00 0.61 0.61 99 1014.1
20260906082553 21 307 0.0 0.0 0.00 0.61 0.61 99 1014.0
20260906082048 21 307 0.0 0.0 0.00 0.61 0.61 99 1014.3
20260906081544 21 307 0.0 0.0 0.00 0.61 0.61 99 1013.9
20260906081039 21 307 0.0 0.0 0.00 0.61 0.61 99 1013.6
20260906080536 21 307 0.0 0.0 0.00 0.61 0.61 99 1013.8
20260906080031 22 307 0.0 0.0 0.00 0.61 0.61 99 1013.8
20260906075526 22 307 0.0 0.0 0.30 0.61 0.61 99 1013.9
20260906075020 22 307 0.0 0.0 0.30 0.61 0.61 99 1013.9
20260906074515 22 307 0.0 0.0 0.30 0.56 0.56 99 1014.1
20260906074013 22 307 0.0 0.0 0.61 0.56 0.56 99 1014.2
20260906073508 22 307 0.0 0.0 0.48 0.51 0.51 99 1014.8
20260906073005 23 307 0.0 0.0 0.43 0.48 0.48 99 1014.7
20260906072459 23 307 0.0 0.0 0.89 0.43 0.43 99 1014.7
20260906071955 23 307 0.0 0.0 1.37 0.38 0.38 99 1015.0
20260906071451 23 307 0.0 0.0 1.50 0.28 0.28 99 1014.9
20260906070946 23 307 0.0 0.0 1.07 0.18 0.18 99 1014.4
20260906070443 23 307 0.0 0.0 0.18 0.03 0.03 99 1014.6
20260906065938 23 307 0.0 0.0 0.00 0.00 0.00 99 1014.5
20260906065438 23 307 0.0 0.0 0.00 0.00 0.00 99 1014.3
20260906064933 22 307 0.0 0.0 0.00 0.00 0.00 99 1013.9
20260906064429 22 307 0.0 0.0 0.00 0.00 0.00 99 1014.0
20260906063924 22 307 0.0 0.0 0.00 0.00 0.00 99 1013.5
20260906063419 22 307 0.0 0.0 0.00 0.00 0.00 99 1013.7
20260906062914 22 307 0.0 0.0 0.00 0.00 0.00 99 1013.5
20260906062409 22 307 0.0 0.0 0.00 0.00 0.00 99 1013.7
20260906061904 22 307 0.0 0.0 0.00 0.00 0.00 99 1013.7
20260906061400 22 307 0.0 0.0 0.00 0.00 0.00 99 1014.0
20260906060854 22 307 0.0 0.0 0.00 0.00 0.00 99 1013.9
20260906060352 22 307 0.0 0.0 0.00 0.00 0.00 99 1013.8
20260906055848 22 307 0.0 0.0 0.00 0.00 0.00 99 1014.0
20260906055343 23 307 0.0 0.0 0.00 0.00 0.00 99 1014.1
20260906054838 23 307 0.0 0.0 0.00 0.00 0.00 99 1013.8
20260906054333 23 307 0.0 0.0 0.00 0.00 0.00 99 1014.0
20260906053830 23 307 0.0 0.0 0.00 0.00 0.00 99 1013.8
20260906053325 23 307 0.0 0.0 0.00 0.00 0.00 99 1014.3
20260906052820 23 307 0.0 0.0 0.00 0.00 0.00 99 1014.3
20260906052317 22 307 0.0 0.0 0.00 0.00 0.00 99 1014.3
20260906051814 22 307 0.0 0.0 0.00 0.00 0.00 99 1014.3
20260906051313 22 307 0.0 0.0 0.00 0.00 0.00 99 1014.2
20260906050808 22 307 0.0 0.0 0.00 0.00 0.00 99 1014.2
20260906050303 22 307 0.0 0.0 0.00 0.00 0.00 99 1014.3
20260906045802 22 307 0.0 0.0 0.00 0.00 0.00 99 1014.2
20260906045257 23 307 0.0 0.0 0.00 0.00 0.00 99 1014.4
20260906044753 23 307 0.0 0.0 0.00 0.00 0.00 99 1014.3
20260906044247 23 307 0.0 0.0 0.00 0.00 0.00 99 1014.5
20260906043744 23 307 0.0 0.0 0.00 0.00 0.00 99 1014.7
20260906043240 23 307 0.0 0.0 0.00 0.00 0.00 99 1014.6
20260906042739 23 307 0.0 0.0 0.00 0.00 0.00 99 1014.7
20260906042238 22 307 0.0 0.0 0.00 0.00 0.00 99 1014.6
20260906041734 22 307 0.0 0.0 0.00 0.00 0.00 99 1014.7
20260906041229 22 307 0.0 0.0 0.00 0.00 0.00 99 1014.6
20260906040724 22 307 0.0 0.0 0.00 0.00 0.00 99 1014.9
20260906040220 22 307 0.0 0.0 0.00 0.00 0.00 99 1014.7
20260906035715 22 307 0.0 0.0 0.00 1.73 1.73 99 1014.6
20260906035211 22 307 0.0 0.0 0.00 1.73 1.73 99 1014.5
20260906034710 22 307 0.0 0.0 0.00 1.73 1.73 99 1014.6
20260906034205 22 307 0.0 0.0 0.00 1.73 1.73 99 1015.0
20260906033701 23 307 0.0 0.0 0.00 1.73 1.73 99 1014.7
20260906033201 23 307 0.0 0.0 0.00 1.73 1.73 99 1014.7
20260906032657 23 307 0.0 0.0 0.00 1.73 1.73 99 1014.8
20260906032152 23 307 0.0 0.0 0.00 1.73 1.73 99 1014.9
20260906031647 23 307 0.0 0.0 0.00 1.73 1.73 99 1014.6
20260906031143 23 307 0.0 0.0 0.00 1.73 1.73 99 1014.7
20260906030642 23 307 0.0 0.0 0.00 1.73 1.73 99 1015.1
20260906030137 22 307 0.0 0.0 0.00 1.73 1.73 99 1014.8
20260906025637 22 307 0.0 0.0 0.00 1.73 1.73 99 1014.6
20260906025136 22 307 0.0 0.0 0.00 1.73 1.73 99 1014.4
20260906024631 22 307 0.0 0.0 0.00 1.73 1.73 99 1014.3
20260906024125 22 307 0.0 0.0 0.00 1.73 1.73 99 1014.3
20260906023621 22 307 0.0 0.0 0.00 1.73 1.73 99 1014.0
20260906023120 22 307 0.0 0.0 0.00 1.73 1.73 99 1014.3
20260906022616 23 307 0.0 0.0 0.00 1.73 1.73 99 1014.1
20260906022112 23 307 0.0 0.0 0.00 1.73 1.73 99 1014.1
20260906021608 23 307 0.0 0.0 0.00 1.73 1.73 99 1014.1
20260906021106 23 307 0.0 0.0 0.00 1.73 1.73 99 1013.9
20260906020605 23 307 0.0 0.0 0.00 1.73 1.73 99 1013.9
20260906020100 23 307 0.0 0.0 0.00 1.73 1.73 99 1014.0
20260906015554 23 307 0.0 0.0 0.00 1.73 1.73 99 1014.2
20260906015053 23 307 0.0 0.0 0.00 1.73 1.73 99 1014.0
20260906014548 23 307 0.0 0.0 0.00 1.73 1.73 99 1013.7
20260906014044 23 307 0.0 0.0 0.00 1.73 1.73 99 1013.6
20260906013539 23 307 0.0 0.0 0.00 1.73 1.73 99 1013.4
20260906013035 23 307 0.0 0.0 0.00 1.73 1.73 99 1013.5
20260906012530 23 307 0.0 0.0 0.00 1.73 1.73 99 1013.7
20260906012029 23 307 0.0 0.0 0.00 1.73 1.73 99 1013.9
20260906011526 23 307 0.0 0.0 0.00 1.73 1.73 99 1013.8
20260906011025 23 307 0.0 0.0 0.00 1.73 1.73 99 1013.9
20260906010520 23 307 0.0 0.0 0.00 1.73 1.73 99 1013.7
20260906010017 23 307 0.0 0.0 0.00 1.73 1.73 99 1013.7
20260906005516 23 307 0.0 0.0 0.00 1.73 1.73 99 1013.9
20260906005015 23 307 0.0 0.0 0.00 1.73 1.73 99 1013.8
20260906004515 23 307 0.0 0.0 0.00 1.73 1.73 99 1013.9
20260906004010 23 307 0.0 0.0 0.00 1.73 1.73 99 1013.8
20260906003505 23 307 0.0 0.0 0.00 1.73 1.73 99 1013.7
20260906003000 23 307 0.0 0.0 0.00 1.73 1.73 99 1013.7
20260906002455 23 307 0.0 0.0 0.00 1.73 1.73 99 1013.8
20260906001950 23 307 0.0 0.0 0.00 1.73 1.73 99 1014.0
20260906001446 23 307 0.0 0.0 0.00 1.73 1.73 99 1013.9
20260906000940 22 307 0.0 0.0 0.00 1.73 1.73 99 1013.9
20260906000435 22 307 0.0 0.0 0.00 1.73 1.73 99 1013.9
20260905235925 22 307 0.0 0.0 0.00 1.73 1.73 99 1013.9
20260905235424 22 307 0.0 0.0 0.00 1.73 1.73 99 1013.7
20260905234919 23 307 0.0 0.0 0.00 1.73 1.73 99 1013.9
20260905234414 23 307 0.0 0.0 0.00 1.73 1.73 99 1013.8
20260905233909 23 307 0.0 0.0 0.00 1.73 1.73 99 1013.8
20260905233405 24 307 0.0 0.0 0.00 1.73 1.73 99 1013.8
20260905232903 24 307 0.0 0.0 0.00 1.73 1.73 99 1013.8
20260905232400 24 307 0.0 0.0 0.00 1.73 1.73 99 1013.5
20260905231855 24 307 0.0 0.0 0.00 1.73 1.73 99 1013.4
20260905231350 24 307 0.0 0.0 0.00 1.73 1.73 99 1013.7
20260905230847 24 307 0.0 0.0 0.00 1.73 1.73 99 1013.6
20260905230344 24 307 0.0 0.0 0.00 1.73 1.73 99 1013.3
20260905225844 24 307 0.0 0.0 0.00 1.73 1.73 99 1013.5
20260905225339 24 307 0.0 0.0 0.00 1.73 1.73 99 1013.3
20260905224834 24 307 0.0 0.0 0.00 1.73 1.73 99 1013.3
20260905224329 24 307 0.0 0.0 0.00 1.73 1.73 99 1013.5
20260905223824 24 307 0.0 0.0 0.00 1.73 1.73 99 1013.5
20260905223322 24 307 0.0 0.0 0.00 1.73 1.73 99 1013.5
20260905222817 24 307 0.0 0.0 0.00 1.73 1.73 99 1013.3
20260905222315 23 307 0.0 0.0 0.00 1.73 1.73 99 1013.5
20260905221812 24 307 0.0 0.0 0.00 1.73 1.73 99 1013.7
20260905221309 24 307 0.0 0.0 0.00 1.73 1.73 99 1013.6
20260905220804 24 307 0.0 0.0 0.00 1.73 1.73 99 1013.6
20260905220300 24 307 0.0 0.0 0.00 1.73 1.73 99 1013.7
20260905215759 23 307 0.0 0.0 0.00 1.73 1.73 99 1013.8
20260905215255 23 307 0.0 0.0 0.00 1.73 1.73 99 1013.8
20260905214750 23 307 0.0 0.0 0.00 1.73 1.73 99 1013.8
20260905214246 23 307 0.0 0.0 0.00 1.73 1.73 99 1013.7
20260905213741 23 307 0.0 0.0 0.00 1.73 1.73 99 1013.8
20260905213237 23 307 0.0 0.0 0.00 1.73 1.73 99 1013.6
20260905212732 23 307 0.0 0.0 0.00 1.73 1.73 99 1013.8
20260905212232 23 307 0.0 0.0 0.00 1.73 1.73 99 1013.7
20260905211731 23 307 0.0 0.0 0.00 1.73 1.73 99 1013.7
20260905211226 22 307 0.0 0.0 0.00 1.73 1.73 99 1013.8
20260905210723 22 307 0.0 0.0 0.00 1.73 1.73 99 1014.1
20260905210223 22 307 0.0 0.0 0.00 1.73 1.73 99 1014.4
20260905205722 22 307 0.0 0.0 0.00 1.73 1.73 99 1014.5
20260905205217 22 307 0.0 0.0 0.00 1.73 1.73 99 1014.3
20260905204716 22 307 0.0 0.0 0.00 1.73 1.73 99 1014.5
20260905204212 22 307 0.0 0.0 0.00 1.73 1.73 99 1014.3
20260905203706 22 307 0.0 0.0 0.00 1.73 1.73 99 1014.6
20260905203202 22 307 0.0 0.0 0.00 1.73 1.73 99 1014.4
20260905202657 22 307 0.0 0.0 0.00 1.73 1.73 99 1014.8
20260905202152 22 307 0.0 0.0 0.00 1.73 1.73 99 1015.0
20260905201648 22 307 0.0 0.0 0.00 1.73 1.73 99 1015.2
20260905201147 22 307 0.0 0.0 0.00 1.73 1.73 99 1015.0
20260905200643 22 307 0.0 0.0 0.00 1.73 1.73 99 1015.3
20260905200138 22 307 0.0 0.0 0.00 1.73 1.73 99 1015.2
20260905195636 22 307 0.0 0.0 0.00 1.73 1.73 99 1014.9
20260905195131 22 307 0.0 0.0 0.00 1.73 1.73 99 1015.0
20260905194626 22 307 0.0 0.0 0.00 1.73 1.73 99 1014.8
20260905194126 22 307 0.0 0.0 0.00 1.73 1.73 99 1014.9
20260905193621 22 307 0.0 0.0 0.00 1.73 1.73 99 1014.9
20260905193115 22 307 0.0 0.0 0.00 1.73 1.73 99 1014.9
20260905192611 22 307 0.0 0.0 0.00 1.73 1.73 99 1014.7
20260905192108 22 307 0.0 0.0 0.00 1.73 1.73 99 1015.0
20260905191606 22 307 0.0 0.0 0.13 1.73 1.73 99 1015.4
20260905191105 22 307 0.0 0.0 0.13 1.73 1.73 99 1015.0
20260905190603 22 307 0.0 0.0 0.18 1.70 1.70 99 1015.2
20260905185601 22 307 0.0 0.0 1.27 1.70 1.70 99 1015.7
20260905185056 22 307 0.0 0.0 4.45 1.63 1.63 97 1016.2
20260905184551 23 307 0.0 0.0 5.94 1.47 1.47 96 1016.4
20260905184050 23 307 0.0 0.0 5.16 0.94 0.94 95 1017.4
20260905183549 25 307 0.0 0.0 2.11 0.38 0.38 92 1017.5
20260905183045 26 307 0.0 0.0 0.30 0.05 0.05 87 1016.8
20260905182545 27 307 0.0 0.0 0.18 0.03 0.03 82 1016.9
20260905182045 28 306 0.0 0.0 0.00 0.00 0.00 82 1016.4
20260905181544 30 306 0.0 0.0 0.00 0.00 0.00 80 1015.8
20260905181039 30 306 0.0 0.0 0.00 0.00 0.00 83 1014.8
20260905180533 31 307 0.0 0.0 0.00 0.00 0.00 83 1015.0
20260905180029 31 306 0.0 0.0 0.00 0.00 0.00 81 1014.8
20260905175527 32 306 0.0 0.0 0.00 0.00 0.00 79 1015.2
20260905175024 32 306 0.0 0.0 0.00 0.00 0.00 78 1014.6
20260905174519 32 306 0.0 0.0 0.00 0.00 0.00 76 1014.6
20260905174014 32 306 0.0 0.0 0.00 0.00 0.00 75 1014.7
20260905173511 32 306 0.0 0.0 0.00 0.00 0.00 77 1014.8
20260905173006 32 306 0.0 0.0 0.00 0.00 0.00 77 1015.2
20260905172504 32 306 0.0 0.0 0.00 0.00 0.00 75 1015.0
20260905172000 31 306 0.0 0.0 0.00 0.00 0.00 74 1015.1
20260905171456 31 306 0.0 0.0 0.00 0.00 0.00 76 1015.3
20260905170952 31 306 0.0 0.0 0.00 0.00 0.00 80 1015.2
20260905170448 31 306 0.0 0.0 0.00 0.00 0.00 79 1015.6
20260905165947 31 306 0.0 0.0 0.00 0.00 0.00 77 1015.5
20260905165442 31 306 0.0 0.0 0.00 0.00 0.00 78 1015.7
20260905164938 31 306 0.0 0.0 0.00 0.00 0.00 81 1015.6
20260905164432 30 306 0.0 0.0 0.00 0.00 0.00 78 1016.0
20260905163927 30 306 0.0 0.0 0.00 0.00 0.00 82 1016.1
20260905163424 30 306 0.0 0.0 0.00 0.00 0.00 83 1016.2
20260905162919 30 306 0.0 0.0 0.00 0.00 0.00 83 1015.9
20260905162414 30 306 0.0 0.0 0.00 0.00 0.00 81 1016.1
20260905161909 30 306 0.0 0.0 0.00 0.00 0.00 83 1016.2
20260905161408 30 306 0.0 0.0 0.00 0.00 0.00 82 1015.9
20260905160906 30 306 0.0 0.0 0.00 0.00 0.00 81 1016.1
20260905160400 31 306 0.0 0.0 0.00 0.00 0.00 81 1016.0
20260905155855 31 306 0.0 0.0 0.00 0.00 0.00 81 1016.1
20260905155349 31 306 0.0 0.0 0.00 0.00 0.00 80 1016.0
20260905154848 30 306 0.0 0.0 0.00 0.00 0.00 80 1016.0
20260905154344 30 306 0.0 0.0 0.00 0.00 0.00 83 1016.1
20260905153839 29 306 0.0 0.0 0.00 0.00 0.00 84 1016.1
20260905153336 29 306 0.0 0.0 0.00 0.00 0.00 86 1016.1
20260905152835 28 306 0.0 0.0 0.00 0.00 0.00 87 1016.2
20260905152334 28 306 0.0 0.0 0.00 0.00 0.00 89 1016.2
20260905151829 27 306 0.0 0.0 0.00 0.00 0.00 90 1016.6
20260905151325 27 306 0.0 0.0 0.00 0.00 0.00 93 1016.4
20260905150825 26 307 0.0 0.0 0.00 0.00 0.00 93 1016.6
20260905150320 26 307 0.0 0.0 0.00 0.00 0.00 93 1016.4
20260905145817 26 307 0.0 0.0 0.00 0.00 0.00 93 1016.5
20260905145316 26 307 0.0 0.0 0.00 0.00 0.00 93 1016.4
20260905144815 26 307 0.0 0.0 0.00 0.00 0.00 93 1016.5
20260905144311 26 307 0.0 0.0 0.00 0.00 0.00 93 1016.4
20260905143810 26 307 0.0 0.0 0.00 0.00 0.00 93 1016.2
20260905143304 26 307 0.0 0.0 0.00 0.00 0.00 92 1016.3
20260905142803 26 306 0.0 0.0 0.00 0.00 0.00 91 1016.5
20260905142257 26 306 0.0 0.0 0.00 0.00 0.00 94 1016.6
20260905141754 26 307 0.0 0.0 0.00 0.00 0.00 96 1016.3
20260905141249 26 307 0.0 0.0 0.00 0.00 0.00 96 1016.4
20260905140744 26 307 0.0 0.0 0.00 0.00 0.00 96 1016.5
20260905140239 26 307 0.0 0.0 0.00 0.00 0.00 97 1016.5
20260905135738 25 307 0.0 0.0 0.00 0.00 0.00 98 1016.7
20260905135234 25 307 0.0 0.0 0.00 0.00 0.00 99 1016.4
20260905134733 25 307 0.0 0.0 0.00 0.00 0.00 99 1016.6
20260905134233 25 307 0.0 0.0 0.00 0.00 0.00 99 1016.6
20260905133728 25 307 0.0 0.0 0.00 0.00 0.00 99 1016.7
20260905133223 25 307 0.0 0.0 0.00 0.00 0.00 99 1016.8
20260905132722 25 307 0.0 0.0 0.00 0.00 0.00 99 1016.8
20260905132218 25 307 0.0 0.0 0.00 0.00 0.00 99 1016.6
20260905131712 25 307 0.0 0.0 0.00 0.00 0.00 99 1016.9
20260905131208 25 307 0.0 0.0 0.00 0.00 0.00 99 1016.8
20260905130702 25 307 0.0 0.0 0.00 0.00 0.00 99 1016.7
20260905130201 25 307 0.0 0.0 0.00 0.00 0.00 99 1016.6
20260905125656 25 307 0.0 0.0 0.00 0.00 0.00 99 1016.6
20260905125152 24 307 0.0 0.0 0.00 0.00 0.00 99 1016.8
20260905124648 24 307 0.0 0.0 0.00 0.00 0.00 99 1017.0
20260905124144 24 307 0.0 0.0 0.00 0.00 0.00 99 1017.0
20260905123638 24 307 0.0 0.0 0.00 0.00 0.00 99 1016.9
20260905123136 24 307 0.0 0.0 0.00 0.00 0.00 99 1016.9
20260905122635 23 307 0.0 0.0 0.00 0.00 0.00 99 1016.7
20260905122131 23 307 0.0 0.0 0.00 0.00 0.00 99 1016.8
20260905121625 23 307 0.0 0.0 0.00 0.00 0.00 99 1016.6
20260905121120 23 307 0.0 0.0 0.00 0.00 0.00 99 1016.7
20260905120619 23 307 0.0 0.0 0.00 0.00 0.00 99 1016.4
20260905120115 23 306 0.0 0.0 0.00 0.00 0.00 99 1016.6
20260905115614 23 306 0.0 0.0 0.00 0.00 0.00 99 1016.3
20260905115109 23 306 0.0 0.0 0.00 0.00 0.00 99 1016.4
20260905114608 23 306 0.0 0.0 0.00 0.00 0.00 99 1016.4
20260905114107 23 306 0.0 0.0 0.00 0.00 0.00 99 1016.0
20260905113602 23 306 0.0 0.0 0.00 0.00 0.00 99 1016.2
20260905113057 23 305 0.0 0.0 0.00 0.00 0.00 99 1016.2
20260905112552 23 305 0.0 0.0 0.00 0.00 0.00 99 1016.0
20260905112048 23 305 0.0 0.0 0.00 0.00 0.00 99 1016.0
20260905111543 23 305 0.0 0.0 0.00 0.00 0.00 99 1016.0
20260905111042 23 305 0.0 0.0 0.00 0.00 0.00 99 1015.9
20260905110541 23 305 0.0 0.0 0.00 0.00 0.00 99 1015.8
20260905110037 23 305 0.0 0.0 0.00 0.00 0.00 99 1015.8
20260905105536 23 305 0.0 0.0 0.00 0.00 0.00 99 1015.7